FW7196 Weather Reports


Display with metric or nautical units.
time (UTC)temp
F
wind
direction
speed
MPH
gust
MPH
rain 1hr
in
rain 24hr
in
rain mn
in
humidity
%
barometer
mb
20260902123243 60 196 0.0 0.0 0.00 0.18 0.01 96 1021.8
20260902123051 60 196 0.0 3.0 0.00 0.16 0.01 96 1021.9
20260902121544 59 0 0.0 1.0 0.00 0.16 0.01 97 1022.0
20260902121502 60 261 0.0 0.0 0.00 0.18 0.01 97 1021.9
20260902120043 59 0 0.0 2.0 0.00 0.16 0.01 97 1021.9
20260902114546 59 0 0.0 5.0 0.00 0.27 0.01 97 1021.9
20260902113041 59 0 0.0 1.0 0.00 0.27 0.01 97 1022.0
20260902111540 58 0 0.0 0.0 0.00 0.27 0.01 97 1022.1
20260902110046 58 0 0.0 1.0 0.00 0.27 0.01 97 1022.1
20260902104542 58 0 0.0 0.0 0.00 0.31 0.01 97 1021.8
20260902103040 58 0 0.0 0.0 0.00 0.31 0.01 97 1021.8
20260902101547 58 0 0.0 0.0 0.00 0.31 0.01 97 1021.5
20260902100041 58 0 0.0 0.0 0.00 0.31 0.01 97 1021.4
20260902094542 59 0 0.0 1.0 0.00 0.31 0.01 97 1021.5
20260902093040 59 0 0.0 0.0 0.00 0.31 0.01 97 1021.5
20260902091544 59 0 0.0 0.0 0.00 0.31 0.01 97 1021.4
20260902090048 59 30 0.0 0.0 0.00 0.30 0.01 96 1021.1
20260902090042 59 0 0.0 0.0 0.00 0.31 0.01 96 1021.1
20260902084545 59 0 0.0 0.0 0.00 0.31 0.01 97 1021.3
20260902083041 59 0 0.0 1.0 0.00 0.31 0.01 97 1021.1
20260902081546 59 0 0.0 0.0 0.00 0.31 0.01 96 1021.3
20260902080043 60 0 0.0 0.0 0.00 0.31 0.01 96 1021.0
20260902074549 60 0 0.0 0.0 0.00 0.31 0.01 97 1021.2
20260902073040 60 0 0.0 0.0 0.00 0.31 0.01 96 1021.4
20260902071543 60 0 0.0 0.0 0.00 0.31 0.01 97 1021.2
20260902070047 60 0 0.0 0.0 0.00 0.31 0.01 97 1021.3
20260902064545 60 0 0.0 0.0 0.00 0.31 0.01 97 1021.3
20260902063043 60 0 0.0 0.0 0.01 0.31 0.01 97 1021.1
20260902061557 60 0 0.0 0.0 0.01 0.31 0.01 97 1021.0
20260902060055 60 0 0.0 0.0 0.01 0.31 0.01 97 1020.9
20260902054608 60 0 0.0 0.0 0.01 0.31 0.01 97 1020.8
20260902053100 60 0 0.0 0.0 0.00 0.30 0.00 96 1020.5
20260902051542 61 0 0.0 0.0 0.00 0.30 0.00 96 1020.4
20260902050042 61 0 0.0 0.0 0.00 0.30 0.00 96 1020.4
20260902044552 61 0 0.0 0.0 0.00 0.30 0.00 96 1020.2
20260902043046 61 0 0.0 0.0 0.00 0.30 0.00 96 1020.1
20260902041541 61 0 0.0 0.0 0.00 0.30 0.00 96 1020.0
20260902040048 61 0 0.0 0.0 0.00 0.30 0.00 96 1019.7
20260902034545 61 0 0.0 0.0 0.00 0.30 0.30 96 1019.7
20260902033044 61 0 0.0 0.0 0.00 0.30 0.30 96 1019.7
20260902031547 61 0 0.0 0.0 0.00 0.30 0.30 96 1019.6
20260902030042 61 0 0.0 2.0 0.00 0.30 0.30 96 1019.7
20260902024541 61 0 0.0 2.0 0.00 0.30 0.30 96 1019.6
20260902023047 61 0 0.0 1.0 0.00 0.30 0.30 96 1019.3
20260902023022 62 30 0.0 0.0 0.00 0.29 0.30 96 1019.2
20260902021542 61 0 0.0 0.0 0.00 0.30 0.30 96 1019.3
20260902020042 62 0 0.0 1.0 0.00 0.30 0.30 96 1019.4
20260902014540 62 0 0.0 0.0 0.00 0.30 0.30 96 1019.3
20260902013043 62 0 0.0 0.0 0.00 0.30 0.30 96 1019.3
20260902011545 62 0 0.0 0.0 0.00 0.30 0.30 96 1019.3
20260902010045 62 0 0.0 0.0 0.00 0.30 0.30 96 1019.5
20260902004543 62 0 0.0 0.0 0.00 0.30 0.30 96 1019.5
20260902003043 62 0 0.0 0.0 0.00 0.30 0.30 95 1019.2
20260902001556 62 0 0.0 0.0 0.00 0.30 0.30 95 1019.0
20260902000045 62 0 0.0 0.0 0.00 0.30 0.30 95 1018.7
20260901234541 62 0 0.0 0.0 0.00 0.30 0.30 95 1018.6
20260901233039 62 0 0.0 1.0 0.00 0.30 0.30 95 1018.5
20260901231548 63 0 0.0 0.0 0.00 0.30 0.30 94 1018.4
20260901230043 63 0 0.0 0.0 0.00 0.30 0.30 94 1018.5
20260901224545 63 0 0.0 0.0 0.00 0.30 0.30 94 1018.4
20260901223050 64 0 0.0 0.0 0.00 0.30 0.30 94 1018.6
20260901221556 64 0 0.0 0.0 0.00 0.30 0.30 93 1018.7
20260901220052 64 0 0.0 0.0 0.00 0.30 0.30 93 1018.5
20260901214551 64 0 0.0 1.0 0.00 0.30 0.30 93 1018.3
20260901213048 64 0 0.0 0.0 0.00 0.30 0.30 93 1018.2
20260901211544 65 0 0.0 0.0 0.00 0.30 0.30 93 1018.1
20260901210044 65 170 0.0 3.0 0.00 0.30 0.30 92 1018.2
20260901204549 65 0 0.0 1.0 0.00 0.30 0.30 92 1018.1
20260901203047 65 140 0.0 2.0 0.00 0.30 0.30 93 1017.8
20260901201543 65 0 0.0 0.0 0.00 0.30 0.30 94 1017.9
20260901200042 64 0 0.0 1.0 0.00 0.30 0.30 92 1018.0
20260901194545 65 0 0.0 0.0 0.00 0.30 0.30 93 1017.9
20260901193048 65 0 0.0 1.0 0.00 0.30 0.30 93 1017.8
20260901191600 65 0 0.0 0.0 0.00 0.30 0.30 94 1017.8
20260901190045 65 0 0.0 0.0 0.00 0.30 0.30 94 1018.0
20260901184547 64 0 0.0 2.0 0.00 0.30 0.30 93 1018.1
20260901183048 64 22 0.0 1.0 0.00 0.30 0.30 93 1018.1
20260901181547 64 0 0.0 2.0 0.00 0.30 0.30 94 1018.1
20260901180046 63 0 0.0 2.0 0.00 0.30 0.30 94 1018.0
20260901174548 63 0 0.0 0.0 0.00 0.30 0.30 96 1017.9
20260901173055 62 0 0.0 2.0 0.00 0.30 0.30 96 1017.7
20260901171556 61 0 0.0 1.0 0.00 0.30 0.30 96 1017.8
20260901170047 61 20 0.0 2.0 0.00 0.30 0.30 96 1017.8
20260901164546 61 0 0.0 2.0 0.00 0.30 0.30 96 1017.8
20260901163042 61 0 0.0 0.0 0.00 0.30 0.30 96 1017.6
20260901161605 60 0 0.0 1.0 0.00 0.30 0.30 96 1017.7
20260901160043 60 0 0.0 0.0 0.00 0.30 0.30 97 1018.0
20260901154553 60 0 0.0 0.0 0.00 0.30 0.30 96 1018.3
20260901153050 60 0 0.0 0.0 0.00 0.30 0.30 97 1018.2
20260901151542 59 0 0.0 1.0 0.00 0.30 0.30 96 1018.2
20260901150048 59 0 0.0 2.0 0.00 0.30 0.30 96 1018.4
20260901144549 59 0 0.0 1.0 0.00 0.30 0.30 96 1018.2
20260901143047 59 0 0.0 2.0 0.00 0.30 0.30 97 1017.9
20260901141548 58 0 0.0 2.0 0.01 0.30 0.30 97 1017.8
20260901140041 58 0 0.0 1.0 0.02 0.30 0.30 96 1017.9
20260901135325 59 81 0.0 0.0 0.00 0.29 0.30 96 1017.8
20260901134825 59 81 0.0 0.0 0.00 0.29 0.30 96 1017.8
20260901134545 58 0 0.0 2.0 0.04 0.30 0.30 96 1017.9
20260901134321 59 48 0.0 0.0 0.00 0.29 0.30 96 1018.0
20260901133809 59 19 0.0 0.0 0.00 0.29 0.30 97 1018.1
20260901133301 58 20 0.0 0.0 0.04 0.29 0.30 97 1018.1
20260901133046 58 37 0.0 2.0 0.06 0.30 0.30 97 1018.2
20260901132801 58 325 0.0 0.0 0.05 0.29 0.30 96 1018.0
20260901132259 58 325 0.0 0.0 0.05 0.29 0.30 96 1018.0
20260901131755 58 325 0.0 0.0 0.05 0.29 0.30 96 1018.1
20260901131546 57 0 0.0 1.0 0.08 0.29 0.29 96 1018.0
20260901131256 58 325 0.0 0.0 0.06 0.29 0.28 96 1017.9
20260901130058 57 37 0.0 2.0 0.13 0.28 0.28 96 1018.3
20260901124545 57 0 0.0 0.0 0.15 0.26 0.26 96 1018.2